Regional Weather Roundup
Issued by NWS

Home | Current Version | Previous Version | Graphics & Text | Print | Product List | Glossary Off
Versions: 1 2 3 4 5 6 7 8 9 10 11 12 13 14 15 16 17 18 19 20 21 22 23 24 25 26 27 28 29 30 31 32 33 34 35 36 37 38 39 40 41 42 43 44 45 46 47 48 49 50

601
ASUS43 KTOP 212359
RWRKS

WEATHER ROUNDUP FOR KANSAS
NATIONAL WEATHER SERVICE GOODLAND KS
700 PM CDT FRI JUL 21 2017

NOTE:  "FAIR" INDICATES FEW OR NO CLOUDS BELOW 12,000 FEET WITH NO
SIGNIFICANT WEATHER AND/OR OBSTRUCTIONS TO VISIBILITY.

KSZ001>006-013>018-027>032-041>047-220100-
NORTHWEST KANSAS

CITY           SKY/WX    TMP DP  RH WIND       PRES   REMARKS
GOODLAND       SUNNY     97  50  20 SE7       29.89F
6HR MIN TEMP:  96; 6HR MAX TEMP:  99;

HAYS           SUNNY    104  56  20 S16       29.79F HX 103
HILL CITY      SUNNY    105  51  16 S8        29.79F HX 102
6HR MIN TEMP: 103; 6HR MAX TEMP: 109;

RUSSELL        SUNNY    104  52  17 SW14      29.78S HX 101
6HR MIN TEMP: 101; 6HR MAX TEMP: 107;

$$

KSZ061>065-074>080-084>089-220100-
SOUTHWEST KANSAS

CITY           SKY/WX    TMP DP  RH WIND       PRES   REMARKS
DODGE CITY     SUNNY    100  52  19 S17       29.86F HX  97
6HR MIN TEMP:  99; 6HR MAX TEMP: 104;

ELKHART          N/A     94  51  23 S15         N/A
GARDEN CITY    SUNNY     97  55  24 S16       29.87S HX  95
6HR MIN TEMP:  97; 6HR MAX TEMP: 102;

LIBERAL        SUNNY     98  54  22 S15       29.90F HX  96
$$

KSZ066>073-081>083-090>101-220100-
SOUTHEAST KANSAS

CITY           SKY/WX    TMP DP  RH WIND       PRES   REMARKS
CHANUTE        SUNNY     96  70  42 S20G25    29.87S HX 102
6HR MIN TEMP:  95; 6HR MAX TEMP: 100;

COFFEYVILLE    SUNNY     95  72  47 S14       29.86F HX 103
6HR MIN TEMP:  95; 6HR MAX TEMP:  98;

HUTCHINSON     SUNNY    103  57  21 S12       29.81S HX 102
6HR MIN TEMP: 101; 6HR MAX TEMP: 106;

MEDICINE LODGE   N/A    103  56  21 S12       29.81F HX 102
NEWTON         SUNNY    102  61  25 S17       29.83S HX 103
PARSONS        SUNNY     94  72  48 S10G17    29.88S HX 102
6HR MIN TEMP:  93; 6HR MAX TEMP:  98;

WICHITA INTL   SUNNY    102  62  26 S13       29.81F HX 104
6HR MIN TEMP:  99; 6HR MAX TEMP: 105;

WICHITA JABRA  SUNNY    100  63  29 S18       29.82F HX 102
6HR MIN TEMP:  98; 6HR MAX TEMP: 104;

WINFIELD       SUNNY     98  67  36 S17       29.85S HX 102
6HR MIN TEMP:  98; 6HR MAX TEMP: 103;

$$

KSZ007>012-019>026-033>040-048>060-102>105-220100-
NORTHEAST KANSAS

CITY           SKY/WX    TMP DP  RH WIND       PRES   REMARKS
CONCORDIA      SUNNY    101  63  28 S13       29.75F HX 103
6HR MIN TEMP: 100; 6HR MAX TEMP: 105;

EMPORIA        SUNNY     97  69  40 S10       29.83S HX 103
6HR MIN TEMP:  97; 6HR MAX TEMP: 102;

LAWRENCE       SUNNY     96  75  50 SE13      29.81S HX 108
6HR MIN TEMP:  96; 6HR MAX TEMP: 101;

MANHATTAN      SUNNY    104  64  27 S13       29.76F HX 107
6HR MIN TEMP: 101; 6HR MAX TEMP: 108;

OLATHE IND     SUNNY     93  74  53 S14       29.85F HX 103
6HR MIN TEMP:  93; 6HR MAX TEMP:  97;

OLATHE EXE     SUNNY     91  75  59 S15       29.85F HX 101
6HR MIN TEMP:  91; 6HR MAX TEMP:  93; 6HR PCP: TRACE;

SALINA         SUNNY    106  57  20 S20G28    29.77S HX 105
6HR MIN TEMP: 103; 6HR MAX TEMP: 110;

TOPEKA BILLARD SUNNY     97  72  44 S9        29.79F HX 105
6HR MIN TEMP:  97; 6HR MAX TEMP: 100;

TOPEKA FORBES  SUNNY     98  71  41 S12       29.81F HX 106
6HR MIN TEMP:  97; 6HR MAX TEMP: 101;

$$




USA.gov is the U.S. government's official web portal to all federal, state and local government web resources and services.